EST,Max TemperatureF,Mean TemperatureF,Min TemperatureF,Max Dew PointF,MeanDew PointF,Min DewpointF,Max Humidity, Mean Humidity, Min Humidity, Max Sea Level PressureIn, Mean Sea Level PressureIn, Min Sea Level PressureIn, Max VisibilityMiles, Mean VisibilityMiles, Min VisibilityMiles, Max Wind SpeedMPH, Mean Wind SpeedMPH, Max Gust SpeedMPH,PrecipitationIn, CloudCover, Events, WindDirDegrees
2013-1-1,37,29,21,27,19,10,70,59,44,30.02,29.91,29.85,10,9,5,9,5,16,0.00,5,,287
2013-1-2,30,20,10,15,10,5,81,61,43,30.17,30.06,30.01,10,10,6,9,2,18,0.00,2,,267
2013-1-3,32,20,9,16,11,1,81,62,44,30.19,30.12,30.05,10,10,9,7,2,,0.00,2,,221
2013-1-4,36,32,28,23,19,16,69,58,48,30.05,30.00,29.94,10,10,10,13,6,21,0.00,4,,223
2013-1-5,41,30,19,20,19,15,89,59,41,30.29,30.19,30.03,10,10,7,14,5,22,0.00,4,,288
2013-1-6,42,34,26,26,23,20,85,71,51,30.19,30.05,29.96,10,8,5,8,2,,0.00,5,,207
2013-1-7,41,31,19,24,21,17,92,69,41,30.39,30.28,30.06,10,8,5,9,2,,0.00,2,,314
2013-1-8,43,29,15,27,21,12,88,76,51,30.40,30.36,30.33,10,6,2,7,2,,0.00,0,,221
2013-1-9,39,28,18,32,23,14,93,83,70,30.38,30.28,30.13,7,4,2,9,1,,0.00,1,,217
2013-1-10,45,36,28,26,23,21,82,55,39,30.54,30.46,30.26,10,10,10,10,4,22,0.00,1,,311
2013-1-11,37,31,25,34,31,22,100,89,70,30.52,30.25,30.11,10,5,1,5,0,,0.25,7,Rain,70
2013-1-12,41,37,33,39,36,34,100,95,93,30.17,30.13,30.10,10,2,0,6,0,,0.01,8,Fog,198
2013-1-13,43,40,36,42,38,35,100,97,93,30.13,30.07,30.00,1,0,0,4,0,,0.01,8,Fog,240
2013-1-14,53,45,37,45,38,25,100,82,49,30.30,30.07,29.90,10,5,0,10,3,17,0.03,6,Fog-Rain,324
2013-1-15,37,32,28,31,26,23,92,75,57,30.35,30.28,30.22,10,8,2,6,2,,0.04,6,Rain-Snow,33
2013-1-16,33,30,28,31,28,25,93,90,80,30.22,30.00,29.82,10,3,0,8,5,,0.34,8,Fog-Rain-Snow,37
2013-1-17,41,36,30,31,25,20,93,69,53,30.10,30.02,29.91,10,9,2,8,2,,0.00,4,,356
2013-1-18,28,23,16,18,9,2,81,55,34,30.45,30.31,30.04,10,10,6,10,6,18,0.00,3,,1
2013-1-19,44,32,19,26,20,9,68,56,43,30.34,30.14,29.91,10,10,10,14,6,25,0.00,3,,224
2013-1-20,50,38,27,27,19,8,82,51,25,30.05,29.82,29.67,10,10,10,17,6,28,0.00,0,,252
2013-1-21,28,23,18,19,14,5,86,66,41,30.06,29.94,29.82,10,8,2,8,2,,0.00,6,Snow,218
2013-1-22,21,16,9,9,2,-10,79,55,33,30.19,30.01,29.83,10,7,0,13,6,23,0.00,4,Snow,287
2013-1-23,17,11,3,0,-4,-8,80,53,36,30.23,30.18,30.15,10,10,8,7,4,16,0.00,2,,259
2013-1-24,21,12,3,4,-2,-4,84,57,33,30.42,30.26,30.12,10,9,4,17,3,28,0.00,1,,320
2013-1-25,21,15,9,14,5,-2,86,65,42,30.40,30.22,30.06,10,7,1,7,3,,0.00,4,Snow,231
2013-1-26,26,16,6,8,4,1,80,62,37,30.38,30.18,30.05,10,10,6,10,3,20,0.00,2,,304
2013-1-27,33,20,6,12,8,2,83,62,32,30.53,30.47,30.38,10,10,8,10,3,16,0.00,0,,281
2013-1-28,33,26,18,31,24,12,92,84,72,30.47,30.21,29.98,10,4,1,9,2,,0.25,7,Rain-Snow,205
2013-1-29,48,40,33,41,36,30,100,91,69,30.13,30.07,29.97,10,2,0,9,1,,0.31,8,Fog-Rain,184
2013-1-30,62,49,36,57,47,35,100,95,80,30.04,29.65,29.34,10,2,0,9,1,,0.36,8,Fog-Rain,213
2013-1-31,55,41,27,55,39,9,100,78,35,29.75,29.27,29.00,10,5,0,18,5,38,1.38,7,Fog-Rain-Snow,239